User: anonymous   Login
Location: Congrier
(47.8099°N, 1.1170°W)
Time: 20:22:41
(UTC+00:00)
Language:

NOSS 3-3 (C) - Orbit

View from above orbital plane
View from above orbital plane
View from above satellite
View from above satellite

Ground track
Ground track

The orbit data is extracted from the following two-line orbital elements,

1 28541U 05004C   24147.98013320 0.00000050  00000-0  43282-4 0    04
2 28541  63.4623 192.6819 0502448   0.5387 359.1245 13.40406051    01
Epoch (UTC): 26 May 2024 23:31:23
Eccentricity: 0.0502448
inclination: 63.4623°
perigee height: 731 km
apogee height: 1484 km
right ascension of ascending node: 192.6819°
argument of perigee: 0.5387°
revolutions per day: 13.40406051
mean anomaly at epoch: 359.1245°
orbit number at epoch: 0

The dashed part of the orbit path shows where the satellite is in the earth's shadow,  

DLR